Other Public Products
Issued by NWS Grand Forks, ND

Home | Current Version | Previous Version | Text Only | Print | Product List | Glossary On
Versions: 1 2 3 4 5 6 7 8 9 10 11 12 13 14 15 16 17 18 19 20 21 22 23 24 25 26 27 28 29 30 31 32 33 34 35 36 37 38 39 40 41 42 43 44 45 46 47 48 49 50
000
FPUS83 KFGF 262131
OPUFGF
PRAIRIE TO PINES WEATHER ROUNDUP
NATIONAL WEATHER SERVICE EASTERN NORTH DAKOTA/GRAND FORKS ND
400 PM CDT TUE MAY 26 2020

 **SATELLITE DATA USED TO AUGMENT SKY COVER AT AUTOMATED STATIONS**
 *****  WEATHER ACROSS EASTERN NORTH DAKOTA  *****

CITY           SKY/WX    TMP DP  RH WIND       PRES   REMARKS
GRAND FORKS    FAIR      74  47  38 SW5       29.77F
GRND FORKS AFB PTSUNNY   73  51  45 CALM      29.78F
GRND FORKS NWS   N/A     74  53  47 MISG      29.73F
BUXTON         NOT AVBL
DEVILS LAKE    FAIR      71  49  45 S8        29.81F
FARGO          FAIR      73  54  51 CALM      29.81F
WAHPETON ARPT    N/A     68  54  60 SE5       29.84F
$$

 *****  WEATHER ACROSS CENTRAL AND WESTERN NORTH DAKOTA  *****

CITY           SKY/WX    TMP DP  RH WIND       PRES   REMARKS
JAMESTOWN      FAIR      73  51  46 W10G17    29.81F
BISMARCK       CLOUDY    77  44  30 W12       29.81F
MINOT          FAIR      74  39  28 SW7       29.76F
MINOT AFB      FAIR      74  41  30 W7G20     29.74F
GARRISON         N/A     71  45  39 SW10      29.79F
WILLISTON      NOT AVBL
DICKINSON      CLOUDY    71  48  43 W18       29.82S
HETTINGER      PTSUNNY   73  45  36 W13G24    29.85F
$$

 *****  OTHER OBSERVATIONS NORTHEAST NORTH DAKOTA  *****

CITY           SKY/WX    TMP DP  RH WIND       PRES   REMARKS
WALHALLA       MOCLDY    72  50  46 SE6       29.77S
LANGDON        FAIR      72  52  49 SW10      29.79F
CAVALIER       MOCLDY    70  46  43 VRB6      29.77S
GRAFTON        FAIR      72  50  46 SE6       29.78F
CANDO          FAIR      73  48  40 SW7G16    29.80F
FORT TOTTEN      N/A     74  52  45 N2        29.95S
ROLLA          FAIR      72  43  35 SW9       29.78F
RUGBY          FAIR      73  48  40 SW13      29.77F
 ***** THE ABOVE OBSERVATIONS ARE NON NWS ARE NOT QUALITY
        CONTROLLED AND MAY MIS-REPORT RAIN FOR SNOW...
$$

 *****  OTHER OBSERVATIONS SOUTHEAST NORTH DAKOTA *****

CITY           SKY/WX    TMP DP  RH WIND       PRES   REMARKS
COOPERSTOWN    FAIR      73  50  43 SW13      29.81F
VALLEY CITY    FAIR      73  52  46 W10G17    29.83S
OAKES          MOCLDY    73  52  46 W8        29.83F
GWINNER        CLOUDY    73  54  49 W8        29.82F
SHEYENNE NWR     N/A     76  57  51 SW3       29.95S
BUFFALO        NOT AVBL
WYNDMERE       NOT AVBL
 ***** THE ABOVE OBSERVATIONS ARE NON NWS ARE NOT QUALITY
       CONTROLLED AND MAY MIS-REPORT RAIN FOR SNOW...
$$

  *****  WEATHER ACROSS NORTHERN MINNESOTA  *****

CITY           SKY/WX    TMP DP  RH WIND       PRES   REMARKS
FLAG ISLAND      N/A     63  57  82 NW12      29.77S
WARROAD        CLOUDY    63  59  88 NW3       29.80S
ROSEAU         FAIR      64  61  88 N3        29.80S
HALLOCK        FAIR      70  57  64 CALM      29.77F
THF RVR FALLS  CLOUDY    70  59  68 VRB6      29.81S
HALSTAD        NOT AVBL
FOSSTON        FAIR      64  57  77 CALM      29.82F
BAUDETTE       CLOUDY    62  59  90 NW12      29.78S
WASKISH        CLOUDY    63  61  94 W8        29.80R
CROOKSTON      FAIR      72  55  56 SE3       29.80S
$$
  *****  WEATHER ACROSS CENTRAL AND WEST MINNESOTA  *****

CITY           SKY/WX    TMP DP  RH WIND       PRES   REMARKS
BEMIDJI        LGT RAIN  62  61  97 W8        29.82S
PARK RAPIDS    LGT RAIN  63  32  31 W10       29.83S
WADENA         LGT RAIN  63  63 100 W7        29.84S
DETROIT LAKES  PTSUNNY   63  59  88 CALM      29.86S
MOORHEAD       FAIR      73  54  49 SE7       29.83S
FERGUS FALLS   FAIR      64  57  77 CALM      29.83F
ELBOW LAKE     LGT RAIN  61  59  94 CALM      29.87R
MORRIS MN      FAIR      63  59  88 NW3       29.87F
STAPLES        DRIZZLE   63  61  94 W7        29.84S
WHEATON        FAIR      64  55  72 CALM      29.87F
$$
  *****  WEATHER ELSEWHERE ACROSS MINNESOTA  *****

CITY           SKY/WX    TMP DP  RH WIND       PRES   REMARKS
DULUTH         PTSUNNY   75  60  59 S12G17    29.81F
INTRNTL FALLS  LGT RAIN  67  65  93 SW6       29.75S FOG
ELY            CLOUDY    73  61  64 SW7G20    29.80R
CLOQUET        CLOUDY    73  61  64 CALM      29.81S
BRAINERD       LGT RAIN  68  62  81 W7        29.83S
HIBBING        LGT RAIN  69  63  81 VRB7      29.80R
ALEXANDRIA     LGT RAIN  63  61  93 W7        29.87S FOG
SAINT CLOUD    LGT RAIN  68  64  87 W8        29.83R FOG
MINNEAPOLIS    PTSUNNY   79  65  62 SW7       29.79F
$$

  *****  WEATHER ACROSS SOUTH DAKOTA  *****

CITY           SKY/WX    TMP DP  RH WIND       PRES   REMARKS
SIOUX FALLS    CLOUDY    67  58  72 N8        29.86S
BROOKINGS      CLOUDY    63  56  78 MISG      29.88F
WATERTOWN      FAIR      67  56  67 CALM      29.86F
HURON          FAIR      71  54  54 N7        29.85F
SISSETON         N/A     68  58  70 S5        29.84F
ABERDEEN       FAIR      76  50  40 VRB5      29.84F
MITCHELL       FAIR      72  52  49 N6        29.86F
PIERRE         FAIR      73  46  38 NW7       29.86F
MOBRIDGE       FAIR      76  46  34 VRB3      29.83F
RAPID CITY     PTSUNNY   72  43  35 S3        29.90S
$$

  *****  SOME WEATHER IN NEARBY STATES *****

CITY           SKY/WX    TMP DP  RH WIND       PRES   REMARKS
GLASGOW MT     FAIR      74  43  32 W18G24    29.79S
GREAT FALLS MT PTSUNNY   72  40  31 W23G32    29.90S
CHEYENNE WY    FAIR      73  30  20 NW13G30   30.04S
SCOTTSBLUFF NE FAIR      80  39  23 NW9       29.94S
OMAHA NE       CLOUDY    66  63  90 NW20G28   29.75F
DES MOINES IA  PTSUNNY   72  68  87 SE14      29.73S
DAVENPORT IA   FAIR      86  66  51 SE20G31   29.86S
CHICAGO IL     LGT RAIN  83  66  56 SE14      29.93R
EAU CLAIRE WI  FAIR      80  66  62 SE12      29.82F
LA CROSSE WI   FAIR      88  67  49 S9G21     29.79F HX  91
$$

  *****  SOME NATIONAL WEATHER *****

CITY           SKY/WX    TMP DP  RH WIND       PRES   REMARKS
LA GUARDIA NY  FAIR      74  59  59 S13       30.17F
RALEIGH NC     PTSUNNY   73  63  70 E12       30.13F
ATLANTA GA     CLOUDY    72  65  78 E16       30.02F
NEW ORLEANS LA PTSUNNY   83  71  67 N8        29.86F
OKLAHOMA CITY  PTSUNNY   71  57  61 NE5       29.88F
ALBUQUERQUE NM FAIR      79  26  14 VRB5      30.04F
SALT LAKE CITY PTSUNNY   80  35  19 W8        30.05F
LOS ANGELES CA FAIR      69  57  65 W10       29.89F
BOISE ID       FAIR      73  49  42 N8        30.05F
SEATTLE WA     PTSUNNY   61  51  70 CALM      30.17S
$$

*** WEATHER ACROSS MANITOBA...SASKATCHEWAN AND ONTARIO ***
                ***ONTARIO***

CITY           SKY/WX    TMP DP  RH WIND       PRES   REMARKS
GERALDTON      FOG       61  61 100 SE7       29.89F VSB 3/4
THUNDER BAY    PTSUNNY   66  59  77 E17       29.82F
SIOUX LOOKOUT  LGT RAIN  64  63  94 SE7       29.74F FOG
TORONTO        MOSUNNY   86  66  51 S9        30.04F
BIG TROUT LK   LGT RAIN  61  41  48 S14G20    29.87F
PICKLE LAKE    LGT RAIN  55  55 100 E14G24    29.80F
DRYDEN         CLOUDY    63  63 100 VRB2      29.73F
KENORA         LGT RAIN  61  59  94 N7        29.78S
$$
                *** MANITOBA***

CITY           SKY/WX    TMP DP  RH WIND       PRES   REMARKS
BRANDON        PTSUNNY   72  45  37 SW14      29.73F
DAUPHIN        PTSUNNY   77  41  27 S7        29.67F
ISLAND LAKE    LGT RAIN  63  43  48 SE15      29.80R
PILOT MOUND      N/A     72  48  43 SW9         N/A
THE PAS        CLOUDY    77  43  29 SE13G18   29.62F
THOMPSON       MOSUNNY   77  39  25 SE6       29.68F
WINNIPEG       PTSUNNY   66  57  72 S5        29.77F
LYNN LAKE      MOSUNNY   66  46  48 NE7       29.66F
CHURCHILL      CLOUDY    34  32  93 E16G23    29.96S WCI  23
GILLAM         MOSUNNY   79  36  21 S10G21    29.73F
$$
                ***SASKATCHEWAN***

CITY           SKY/WX    TMP DP  RH WIND       PRES   REMARKS
ESTEVAN        LGT RAIN  64  54  68 W26G35    29.75S
KINDERSLEY     PTSUNNY   61  46  59 NW22G38   29.74S
LLOYDMINSTER   LGT RAIN  57  43  58 W16G25    29.74S
PRINCE ALBERT  CLOUDY    63  55  77 S5        29.65F
REGINA         PTSUNNY   66  52  59 SW9G18    29.70F
YORKTON        CLOUDY    72  39  30 SW22      29.67F


USA.gov is the U.S. government's official web portal to all federal, state and local government web resources and services.
  • National Weather Service
  • El Paso, TX Weather Forecast Office
  • 7955 Airport Rd
  • Santa Teresa, NM 88008
  • (575) 589-4088
  • Page Author: EPZ Webmaster
  • Web Master's E-mail: sr-epz.webmaster@noaa.gov
  • Page last modified: Mar 10th, 2020 21:02 UTC